Regional Weather Roundup
Issued by NWS Grand Forks, ND

Home | Current Version | Previous Version | Text Only | Print | Product List | Glossary On
Versions: 1 2 3 4 5 6 7 8 9 10 11 12 13 14 15 16 17 18 19 20 21 22 23 24 25 26 27 28 29 30 31 32 33 34 35 36 37 38 39 40 41 42 43 44 45 46 47 48 49 50
000
ASUS43 KFGF 010431
RWRFGF
PRAIRIE TO PINES  WEATHER ROUNDUP
NATIONAL WEATHER SERVICE EASTERN NORTH DAKOTA/GRAND FORKS ND
1100 PM CDT MON AUG 31 2015

 **SATELLITE DATA USED TO AUGMENT SKY COVER AT AUTOMATED STATIONS**
 *****  WEATHER ACROSS EASTERN NORTH DAKOTA  *****

CITY           SKY/WX    TMP DP  RH WIND       PRES   REMARKS
GRAND FORKS    MOCLDY    62  55  77 W6        29.84R
GRAND FRKS AFB PTCLDY    60  56  88 W5        29.85R
GRAND FRKS NWS   N/A     63 N/A N/A MISG        N/A
DEVILS LAKE    CLEAR     64  50  59 SW8       29.86S
FARGO          MOCLDY    67  65  93 CALM      29.86R
WAHPETON ARPT  NOT AVBL
$$

 ***** WEATHER ACROSS CENTRAL AND WESTERN NORTH DAKOTA  *****

CITY           SKY/WX    TMP DP  RH WIND       PRES   REMARKS
BISMARCK       MOCLDY    60  51  72 SE6       29.91R
MINOT          CLEAR     62  44  51 SW6       29.84S
JAMESTOWN      MOCLDY    60  54  80 SW3       29.89R
MINOT AFB      CLEAR     59  45  60 SW9       29.83S
GARRISON         N/A     60  50  69 CALM      29.87S
WILLISTON      CLEAR     56  43  61 SW3       29.86S
DICKINSON      CLEAR     55  42  61 S8        29.90S
HETTINGER      CLEAR     62  48  60 SE8       29.95S
$$

 *****  OTHER AIRPORT OBSERVATIONS IN OUR AREA  *****

CITY           SKY/WX    TMP DP  RH WIND       PRES   REMARKS
WALHALLA       FAIR      64  45  48 MISG      29.82S
GRAFTON AIRPOR FAIR      61  54  77 SW6       29.84S
VALLEY CITY AR FAIR      63  63 100 CALM      29.90R
CANDO          FAIR      55  48  76 SW6       29.86S
CAVALIER APRT  FAIR      59  48  67 CALM      29.82S
GWINNER          N/A     66  66 100 W6        29.90S
SHEYENNE NWR     N/A     65  64  96 CALM      29.95S
ROLLA          FAIR      50  45  81 SW5       29.85F
 ***** THE ABOVE OBSERVATIONS ARE NON NWS ARE NOT QUALITY
       CONTROLLED AND MAY MIS-REPORT RAIN FOR SNOW...
$$

  *****  WEATHER ACROSS NORTHERN MINNESOTA  *****

CITY           SKY/WX    TMP DP  RH WIND       PRES   REMARKS
FLAG ISLAND    PTCLDY    66  63  88 SW10      29.80R
WARROAD        MOCLDY    64  59  82 SW9       29.83R
ROSEAU         MOCLDY    64  55  72 SW7       29.83R
HALLOCK        CLEAR     57  48  72 CALM      29.82S
THF RVR FALLS  CLOUDY   N/A N/A N/A CALM      29.85S
BAUDETTE       CLOUDY    65  63  93 SW7       29.83R
WASKISH        CLOUDY    63  61  94 CALM      29.86R FOG
CROOKSTON      MOCLDY    66  55  68 W7        29.86R
STEPHEN NDAWN    N/A     63  55  77 W5          N/A
GREENBUSH NDAW   N/A     57  54  88 SW3         N/A
$$
  *****  WEATHER ACROSS CENTRAL AND WEST MINNESOTA  *****

CITY           SKY/WX    TMP DP  RH WIND       PRES   REMARKS
FOSSTON        CLOUDY    61  59  94 CALM      29.88S
BEMIDJI        CLOUDY    66  65  97 CALM      29.87S
PARK RAPIDS    CLOUDY    69  66  90 CALM      29.87S
ELBOW LAKE     FAIR      68  67  96 W5        29.88S
WADENA         CLOUDY    68  66  94 CALM      29.88R
DETROIT LAKES  MOCLDY    64  63  94 CALM      29.90R FOG
MOORHEAD       MOCLDY    64  64 100 CALM      29.88S FOG
FERGUS FALLS   MOCLDY    66  66 100 CALM      29.87S FOG
MORRIS MN      MOCLDY    70  68  94 CALM      29.88R
STAPLES        MOCLDY    70  66  88 CALM      29.88R
$$
  *****  WEATHER ELSEWHERE ACROSS MINNESOTA  *****

CITY           SKY/WX    TMP DP  RH WIND       PRES   REMARKS
DULUTH         MOCLDY    73  68  84 SW8       29.88F
INTRNTL FALLS  CLOUDY    65  63  93 SW5       29.84R
ELY            MOCLDY    72  66  83 SW3       29.87S
CLOQUET        PTCLDY    72  66  83 S3        29.88F
WHEATON        MOCLDY    66  63  88 W5        29.90R
BRAINERD       MOCLDY    72  67  84 SW6       29.87R
HIBBING        MOCLDY    72  67  84 CALM      29.86S
ALEXANDRIA     CLOUDY    69  66  90 W5        29.90R
SAINT CLOUD    PTCLDY    71  68  90 S6        29.88S
MINNEAPOLIS    MOCLDY    78  70  76 S10       29.90S
$$

  *****  WEATHER ACROSS SOUTH DAKOTA  *****

CITY           SKY/WX    TMP DP  RH WIND       PRES   REMARKS
SIOUX FALLS    CLOUDY    74  69  85 S12       29.90S
BROOKINGS      PTCLDY    72  68  88 S7        29.93R
WATERTOWN      PTCLDY    69  66  90 N3        29.91R
HURON          MOCLDY    65  64  97 NW7       29.89S
SISSETON         N/A     65  63  93 N7        29.88S
ABERDEEN       MOCLDY    63  61  93 W3        29.90S
MITCHELL       PTCLDY    69  67  93 NW5       29.90R
PIERRE         MOCLDY    63  60  90 N3        29.91S
MOBRIDGE       MOCLDY    59  55  87 CALM      29.90S
RAPID CITY     CLOUDY    64  58  80 NE3       29.95F
$$

  *****  SOME WEATHER IN NEARBY STATES *****

CITY           SKY/WX    TMP DP  RH WIND       PRES   REMARKS
GLASGOW MT     CLEAR     61  43  51 SE9       29.83R
GREAT FALLS MT MOCLDY    58  37  45 SW7       29.88S
CHEYENNE WY    MOCLDY    60  49  66 SW5       30.18F
SCOTTSBLUFF NE CLOUDY    67  55  65 SW9       30.03F
OMAHA NE       CLEAR     75  69  81 S9        29.92S
DES MOINES IA  PTCLDY    75  70  84 S6        29.95S
DAVENPORT IA   CLEAR     74  71  91 SE7       30.00S
CHICAGO IL     CLEAR     72  68  87 CALM      30.03F
EAU CLAIRE WI  CLEAR     74  69  85 S9        29.94S
LA CROSSE WI   PTCLDY    73  70  90 S5        29.96S
$$

  *****  SOME NATIONAL WEATHER *****

CITY           SKY/WX    TMP DP  RH WIND       PRES   REMARKS
LA GUARDIA NY  MOCLDY    84  66  54 W9        29.98S
RALEIGH NC     MOCLDY    70  68  94 CALM      30.10S
ATLANTA GA     CLEAR     73  68  84 CALM      30.13R
NEW ORLEANS LA PTCLDY    79  71  76 CALM      30.04S
OKLAHOMA CITY  CLEAR     78  63  59 S9        30.00S
ALBUQUERQUE NM MOCLDY    76  47  35 SE5       30.14S
SALT LAKE CITY PTCLDY    74  42  31 S5        29.96R
LOS ANGELES CA PTCLDY    70  65  84 W6        29.88R
BOISE ID       CLEAR     72  44  36 CALM      29.90R
SEATTLE WA     MOCLDY    62  55  77 S13       29.92S
$$

*** WEATHER ACROSS MANITOBA...SASKATCHEWAN AND ONTARIO ***
                ***ONTARIO***

CITY           SKY/WX    TMP DP  RH WIND       PRES   REMARKS
GERALDTON      MOCLDY    66  61  82 SW14      29.79S FOG
THUNDER BAY    CLOUDY    63  61  94 NE3       29.82S
SIOUX LOOKOUT  MOCLDY    66  64  94 SW6       29.79
TORONTO        CLEAR     70  64  83 N9        30.04S
BIG TROUT LK   PTCLDY    61  61 100 W9G18     29.57R
PICKLE LAKE    NOT AVBL
DRYDEN         CLEAR     66  63  88 SW7       29.80R
KENORA         PTCLDY    64  63  94 SW6       29.80R
$$
                *** MANITOBA***

CITY           SKY/WX    TMP DP  RH WIND       PRES   REMARKS
BRANDON        PTCLDY    55  48  76 SW10      29.79S
DAUPHIN        CLEAR     63  48  59 SW8       29.71S
ISLAND LAKE    CLEAR     63  59  88 W6        29.60R
PILOT MOUND      N/A     52  45  76 SW6         N/A
THE PAS        PTCLDY    63  54  72 SW5       29.57R
THOMPSON       DRIZZLE   57  57 100 VRB2      29.57R
WINNIPEG       CLEAR     63  48  59 SW10      29.77S
LYNN LAKE      PTCLDY    52  52 100 MISG      29.54S
CHURCHILL      CLOUDY    46  45  93 E10G17    29.61S
$$
                ***SASKATCHEWAN***

CITY           SKY/WX    TMP DP  RH WIND       PRES   REMARKS
ESTEVAN        PTCLDY    57  43  58 SW10      29.82S
KINDERSLEY     MOCLDY    54  41  62 S7        29.68
LLOYDMINSTER   PTCLDY    57  39  51 S8        29.62S
PRINCE ALBERT  PTCLDY    50  45  81 CALM      29.64R
REGINA         MOCLDY    57  46  67 S8        29.75S
YORKTON        CLEAR     59  45  58 SW9       29.73S
N. BATTLEFORD  CLEAR     55  41  58 SE6       29.67R
LA RONGE       PTCLDY    55  46  71 SE2       29.59R
SASKATOON      MOCLDY    59  45  58 S7        29.68R
SWIFT CURRENT  MOCLDY    63  41  45 W12G18    29.77R
$$
NOTE: THESE ARE AUTOMATED STATIONS WITH LIMITED QUALITY CONTROL
      "FAIR" INDICATES FEW OR NO CLOUDS BELOW 12,000 FEET WITH NO
      SIGNIFICANT WEATHER AND/OR OBSTRUCTIONS TO VISIBILITY.
      SKY/WX - SKY CONDITION AND SIGNIFICANT WEATHER.
      TMP - AIR TEMPERATURE.    DP   - DEWPOINT TEMPERATURE.
      RH  - RELATIVE HUMIDITY.  PRES - PRESSURE.
      HX  - HEAT INDEX.         WCI  - WIND CHILL INDEX.
$



USA.gov is the U.S. government's official web portal to all federal, state and local government web resources and services.